CAPE
80 627 1450 1600 1442 1436 1272 1182 1268 1525 1580 1680 1733 1786 1715 1591 1795 2126 2165 2144 2143 1957 1479 1619 1440 1298 1329 1369 1605 1716 1855 2155 2322 2079 2074 1907 1899 1698 1711 1741 1832 1688 1753
102 759 1414 1597 1535 1547 1435 1277 1379 1681 1799 1784 1741 1769 1758 1736 1854 2079 2167 2184 2114 1775 1652 1701 1594 1463 1244 1417 1614 1728 1693 2016 2103 2190 2107 1898 1784 1583 1715 1798 1890 1774 1783
294 869 1409 1566 1583 1611 1590 1489 1646 1914 1956 1844 1751 1768 1773 1685 1783 2043 2124 2160 2108 1788 1749 1736 1712 1623 1515 1567 1766 1846 1832 1798 1619 1698 1543 1562 1769 1688 1709 1772 1738 1729 1681
476 916 1378 1584 1548 1572 1541 1560 1776 2043 2052 1907 1802 1674 1692 1594 1720 1858 2052 2160 2160 1808 1842 1823 1745 1552 1355 1353 1281 1253 1179 1062 961 900 883 986 1149 1654 1606 1610 1482 1605 1722
578 916 1294 1545 1451 1504 1488 1548 1743 1891 1890 1824 1798 1675 1523 1527 1611 1757 1989 2254 2204 1786 1753 1768 1507 1230 1054 909 799 750 680 633 602 451 530 901 1110 1289 1723 1616 1579 1578 1708
494 841 1308 1466 1380 1432 1491 1586 1698 1598 1498 1558 1713 1837 1777 1536 1510 1717 1900 2357 2137 1903 1691 1485 1220 1015 809 618 549 542 661 737 585 387 509 543 700 1343 1306 1792 1835 1681 1768
464 795 1203 1353 1327 1389 1564 1653 1562 1387 1331 1481 1639 1670 1814 1863 1741 1600 1656 1935 2353 2151 1789 1344 1072 802 559 484 470 353 333 435 481 352 560 759 807 1703 1233 1318 1602 1704 1733
342 729 1026 1223 1269 1321 1415 1439 1354 1258 1286 1394 1458 1513 1710 1573 1435 1561 1717 1602 1479 1304 1112 870 554 447 497 610 590 419 325 502 546 390 270 791 847 1670 1587 1638 1806 1737 1714
316 583 1040 1347 1163 1206 1261 1317 1313 1233 1255 1319 1294 1336 1414 1179 1187 1523 1705 1659 1426 1075 783 581 563 668 786 761 608 498 545 618 696 509 507 541 806 1735 1941 1500 1378 1548 1687
212 367 587 1037 1118 1150 1234 1336 1326 1225 1212 1225 1178 1194 1113 975 1115 1358 1528 1650 1479 1186 903 943 1011 885 670 527 395 210 271 613 706 544 620 725 376 986 1648 1751 1104 1352 1669
449 185 400 648 907 1158 1300 1347 1285 1187 1161 1145 1118 1054 922 753 954 1205 1271 1477 1604 1586 1443 1333 809 295 205 104 185 251 350 418 666 719 746 704 184 1228 1291 1992 1335 1347 1652
607 519 473 427 637 958 1119 1264 1205 1131 1109 1052 987 867 660 577 725 941 1148 1276 1405 1444 1333 1002 608 110 38 62 80 243 353 250 479 572 403 680 396 1337 1242 645 214 193 851
611 601 657 699 516 739 913 1102 1089 1067 1020 941 844 692 556 586 729 956 1251 1359 1391 1374 935 648 402 170 134 154 95 100 125 114 143 169 154 187 687 907 795 663 193 271 744
761 735 781 795 534 500 607 825 893 961 928 842 718 635 600 598 1001 1227 1165 1388 1171 1082 443 332 238 164 186 144 70 9 27 58 110 139 178 370 503 609 1176 856 707 467 234
1293 1151 992 791 497 457 291 531 726 813 833 707 602 601 575 730 905 801 927 1004 978 515 223 206 168 233 246 147 84 41 34 46 55 170 227 312 605 964 1059 635 488 318 250
1059 1191 1034 765 617 659 394 158 256 439 397 425 518 587 773 898 1058 1030 1136 850 580 385 154 102 92 185 256 169 139 101 79 16 61 139 267 298 455 514 791 683 531 353 195
838 1007 1068 558 655 776 544 215 776 635 384 627 614 825 1208 1309 1195 1156 806 599 487 142 49 0 0 49 146 157 133 70 1 0 8 64 109 263 287 322 304 333 317 198 57
919 1070 1096 736 738 848 795 1056 1314 941 775 947 1109 1112 1363 1278 1186 770 560 378 125 0 0 0 21 32 87 82 48 40 26 0 6 79 27 64 113 188 142 139 115 91 42
801 1157 1177 1096 1039 1004 976 1482 1501 1171 1175 1338 1679 1595 1613 1220 836 663 491 120 0 0 0 0 3 22 36 32 54 17 2 7 98 36 27 36 40 59 154 91 89 64 48
698 1123 1295 1298 1276 1402 1581 1401 1514 1441 1457 1597 1791 1662 1427 1011 717 584 149 0 0 0 0 0 0 7 19 48 7 0 1 2 3 2 1 3 22 2 21 1 6 12 17
537 981 1373 1353 1333 1382 1302 1226 1230 1265 1392 1313 1141 1450 864 711 449 235 0 0 0 0 0 0 0 0 0 3 2 0 0 0 0 0 0 2 2 4 63 12 10 3 0
507 780 1185 1234 1138 1068 1105 1112 1157 1209 1193 1023 904 1022 879 343 181 0 0 0 0 0 0 0 0 0 0 0 0 0 0 0 0 0 0 1 15 29 45 13 6 2 13
438 664 922 1003 1097 1224 1259 1178 1102 1523 1348 715 432 736 450 182 1 0 0 0 0 0 0 0 0 0 0 0 0 0 0 0 0 0 0 2 6 5 8 7 20 10 13
368 643 831 994 1243 1328 1282 1256 1317 1447 940 268 235 340 308 6 2 0 0 0 0 0 0 0 0 0 0 0 0 0 4 9 16 4 4 8 6 17 13 10 17 27 25
616 706 964 1201 1274 1167 1230 1456 1673 1239 379 314 340 353 35 17 7 0 0 0 0 0 0 0 0 0 0 0 0 0 0 0 2 7 6 5 5 17 21 18 23 33 39
1117 1145 1173 1199 1368 1334 1546 1562 1158 496 436 212 358 226 36 1 0 0 0 0 0 0 0 0 0 0 0 0 0 0 0 0 0 0 0 3 2 0 14 18 32 18 25
CIN
-897 -587 -310 -262 -275 -284 -312 -325 -299 -242 -208 -161 -126 -91 -78 -86 -60 -21 -16 -11 -12 -21 -55 -29 -32 -33 -25 -14 0 0 0 0 0 -1 0 0 0 0 0 -1 -2 -1 0
-946 -551 -330 -279 -275 -264 -273 -285 -252 -202 -173 -148 -123 -98 -86 -82 -59 -32 -23 -13 -19 -37 -32 -13 -10 -13 -27 -11 0 0 0 0 0 0 -1 0 0 0 0 0 0 0 0
-791 -517 -335 -293 -279 -264 -250 -247 -208 -162 -137 -132 -131 -107 -104 -110 -91 -47 -27 -19 -18 -37 -30 -14 -3 0 -2 0 0 0 0 0 -1 -1 -2 -2 0 0 0 0 0 0 0
-746 -532 -363 -300 -294 -272 -255 -238 -191 -134 -106 -119 -121 -135 -127 -138 -102 -71 -37 -18 -11 -35 -20 -8 -3 -5 -10 -11 -24 -33 -38 -34 -34 -48 -26 -4 0 0 0 0 0 0 0
-701 -557 -400 -313 -317 -287 -268 -242 -187 -139 -128 -130 -131 -141 -154 -139 -111 -78 -32 -11 -11 -36 -27 -17 -19 -32 -34 -42 -66 -31 -47 -20 -39 -40 -34 -34 -6 -1 0 0 0 0 -1
-708 -542 -387 -327 -323 -296 -268 -235 -182 -167 -177 -170 -133 -112 -102 -114 -113 -70 -31 -3 -10 -18 -34 -36 -46 -60 -69 -74 -88 -94 -9 -5 -19 -43 -41 -68 -77 -6 -1 0 0 0 0
-701 -527 -392 -329 -314 -290 -245 -204 -197 -199 -202 -171 -131 -119 -81 -59 -59 -59 -47 -10 0 -3 -21 -57 -77 -84 -88 -91 -97 -110 -91 -120 -101 -16 -31 -98 -81 -13 -12 -2 0 0 0
-743 -540 -413 -327 -293 -286 -245 -205 -211 -224 -200 -173 -158 -141 -87 -94 -89 -60 -24 -32 -39 -63 -83 -107 -156 -167 -150 -96 -67 -106 -128 -92 -96 -125 -96 -54 -69 -17 -1 -1 0 0 0
-716 -573 -389 -290 -298 -281 -240 -217 -207 -217 -190 -173 -169 -139 -98 -122 -117 -51 -17 -15 -39 -69 -99 -130 -148 -139 -119 -189 -126 -99 -45 -72 -65 -98 -70 -44 -61 -12 -2 -6 -7 0 0
-487 -633 -516 -352 -297 -263 -223 -189 -182 -187 -174 -163 -153 -136 -126 -126 -83 -42 -30 -6 -12 -38 -85 -93 -69 -98 -122 -97 -194 -245 -141 -97 -58 -77 -55 -51 -53 -50 -6 -9 -17 -1 0
-275 -667 -561 -442 -341 -239 -195 -171 -159 -166 -160 -143 -137 -133 -131 -145 -94 -53 -45 -16 -6 -7 -13 -35 -79 -111 -187 -195 -144 -209 -124 -123 -72 -42 -47 -72 -50 -40 -14 -7 -28 -18 0
-276 -237 -224 -495 -390 -264 -196 -159 -154 -151 -148 -145 -144 -140 -160 -153 -122 -91 -58 -41 -21 -14 -19 -34 -42 -85 -122 -247 -177 -96 -79 -101 -54 -56 -45 -65 -145 -28 -20 -45 -106 -86 -10
-276 -232 -210 -184 -211 -285 -213 -158 -144 -142 -148 -150 -145 -148 -155 -127 -109 -68 -39 -31 -22 -10 -26 -43 -100 -107 -99 -166 -90 -123 -84 -86 -55 -75 -121 -146 -56 -66 -31 -21 -103 -59 -30
-398 -232 -205 -196 -196 -337 -248 -187 -156 -139 -150 -154 -156 -154 -134 -118 -57 -30 -40 -12 -13 -4 -22 -78 -121 -132 -150 -155 -159 -165 -100 -98 -137 -117 -93 -66 -63 -83 -22 -6 -7 -4 -1
-324 -239 -182 -198 -77 -32 -59 -231 -166 -154 -158 -163 -164 -151 -129 -92 -63 -62 -34 -8 0 -11 -89 -142 -177 -183 -137 -145 -156 -189 -139 -125 -146 -84 -83 -133 -81 -28 -4 -5 -4 -2 -10
-380 -251 -185 -202 -41 -16 -24 -387 -302 -137 -225 -200 -164 -141 -89 -46 -23 -12 -2 -2 -16 -27 -103 -187 -239 -142 -110 -141 -110 -143 -98 -78 -94 -55 -52 -48 -28 -23 -11 -7 -4 0 -3
-405 -291 -188 -112 -36 -14 -19 -299 -71 -80 -68 -64 -49 -76 -24 -10 -7 0 -1 -5 -37 -112 -180 0 0 -241 -121 -86 -110 -154 -11 -6 -61 -47 -44 -12 -3 -7 -3 0 -1 -55 -59
-359 -305 -183 -194 -45 -19 -188 -81 -34 -61 -60 -35 -5 -10 -16 -6 0 0 -4 -24 -98 0 0 0 -185 -173 -126 -111 -130 -133 -139 0 -75 -36 -79 -27 -19 -9 -20 -2 -4 -5 -27
-362 -270 -186 -175 -163 -169 -138 -52 -23 -43 -49 -28 0 -2 0 0 0 -2 -8 -63 0 0 0 0 -114 -164 -106 -85 -78 -147 0 -12 -63 -26 -20 -53 -53 -27 -14 0 -2 -12 -10
-336 -231 -165 -135 -123 -103 -59 -50 -20 -15 -19 -7 0 0 0 0 0 -4 -55 0 0 0 0 0 0 -140 -106 -85 -54 0 0 0 -73 0 0 0 -54 -2 -3 -1 0 -3 -1
-322 -232 -154 -124 -108 -90 -72 -56 -30 -19 -7 -7 -1 0 0 -3 -15 -39 0 0 0 0 0 0 0 0 0 -12 -37 0 0 0 0 0 0 0 -9 -1 -54 -146 0 0 0
-329 -248 -152 -114 -100 -87 -53 -31 -8 -2 0 -1 -8 -1 -1 -42 -71 0 0 0 0 0 0 0 0 0 0 0 0 0 0 0 0 0 0 -1 -182 -128 -86 -1 -1 -5 0
-307 -256 -173 -115 -79 -36 -6 0 0 0 0 -14 -54 -8 -24 -75 -25 0 0 0 0 0 0 0 0 0 0 0 0 0 0 0 0 0 0 -26 -16 -12 -20 -10 -6 -6 -1
-340 -240 -161 -105 -40 -11 0 0 0 0 -1 -94 -102 -62 -51 -131 -102 0 0 0 0 0 0 0 0 0 0 0 0 0 0 -7 -3 -4 -2 -11 -27 -20 -37 -20 -14 -9 -5
-298 -224 -118 -67 -19 -14 0 0 0 0 -97 -108 -91 -68 -131 -114 -108 0 0 0 0 0 0 0 0 0 0 0 0 0 0 0 -1 -20 -10 -2 -12 -34 -27 -3 -1 -14 -7
-183 -128 -79 -61 -21 -15 -3 0 -3 -87 -102 -144 -90 -102 -129 -41 0 0 0 0 0 0 0 0 0 0 0 0 0 0 0 0 0 0 -6 -11 -6 0 -9 -18 -13 -17 -17
Wind_Speed
nan 23 28 27 27 30 31 31 34 37 39 38 37 36 35 35 33 29 27 27 28 30 31 29 26 25 26 23 19 19 20 19 19 19 17 19 21 21 19 16 13 9 15
26 26 28 30 30 31 31 32 34 37 39 39 38 37 36 35 33 30 28 27 28 29 29 30 28 27 27 25 22 20 19 16 16 16 17 19 22 20 20 17 14 10 11
32 28 29 32 33 34 32 34 35 37 39 39 38 37 36 36 34 30 27 26 28 30 30 30 31 30 28 27 23 20 18 16 14 13 15 13 13 17 20 19 16 14 11
30 28 27 31 33 35 34 35 37 39 40 41 39 37 35 35 34 32 28 26 26 29 29 30 31 33 30 27 24 23 19 14 12 7 9 10 12 15 17 19 21 17 15
27 27 28 33 34 36 36 36 37 40 42 42 40 38 36 36 34 32 30 27 28 27 29 31 31 32 29 28 27 23 21 16 12 5 6 8 9 11 17 17 19 20 17
25 25 30 32 34 36 39 39 38 40 43 42 40 37 35 34 33 32 29 28 29 32 30 31 31 32 34 29 27 27 22 15 16 7 7 9 14 16 17 20 19 20 20
26 26 28 29 33 36 38 40 41 42 44 43 40 38 35 32 29 30 30 30 29 29 29 32 34 34 30 33 30 25 24 20 15 11 10 11 14 19 22 19 21 23 20
31 29 30 31 33 36 38 39 40 42 45 43 41 39 38 34 30 30 30 28 27 27 28 28 28 32 36 34 32 32 25 26 21 15 17 15 18 19 17 17 23 23 24
29 31 33 32 32 36 38 40 41 43 45 42 40 37 36 31 30 29 29 28 29 23 20 21 28 30 22 37 44 38 32 26 23 23 20 19 15 18 21 19 26 23 25
28 30 33 34 35 36 37 41 43 44 45 40 39 35 30 28 25 25 25 26 19 22 19 19 16 21 26 29 50 37 36 27 26 25 23 19 14 13 16 27 30 28 30
27 30 33 35 36 38 38 38 43 47 44 39 36 31 25 23 25 22 23 22 23 18 21 22 21 22 24 27 34 40 32 43 33 26 27 22 18 21 19 29 29 28 21
29 31 34 36 36 39 38 40 42 41 35 32 31 25 22 22 24 22 21 20 20 24 22 24 28 25 nan nan nan 40 25 33 30 30 27 27 8 13 16 21 14 15 10
31 33 36 40 38 40 38 39 38 31 30 30 27 21 21 22 23 20 22 19 21 21 17 19 24 27 28 38 nan 38 39 38 24 29 23 21 11 14 18 19 14 14 11
34 35 38 36 42 41 39 37 32 29 29 28 21 21 20 20 22 23 22 22 22 18 15 19 25 27 32 30 nan nan nan nan 18 21 14 27 19 17 15 16 14 12 32
34 36 42 42 43 37 35 28 26 27 27 25 20 19 19 21 22 23 23 25 22 25 25 27 33 36 35 31 nan nan nan nan nan 12 14 14 21 24 26 28 34 30 30
38 44 43 38 37 31 29 28 27 27 25 21 18 18 20 21 23 25 25 26 26 27 31 35 nan 41 36 35 33 27 nan nan nan 15 17 17 24 29 36 45 41 37 36
44 48 43 37 38 35 29 29 27 25 23 20 18 19 21 23 26 28 29 30 31 35 nan nan nan nan 42 36 37 nan nan nan nan nan 21 20 21 34 38 37 43 43 nan
49 50 43 35 36 35 31 30 26 24 21 19 19 20 22 25 28 30 32 31 35 nan nan nan nan nan nan nan nan nan nan nan nan nan nan nan 26 27 34 39 44 nan nan
48 46 41 38 38 37 32 30 26 23 21 19 21 22 24 26 27 27 30 33 nan nan nan nan nan nan nan nan nan nan nan nan nan nan nan nan nan nan 32 nan nan nan nan
44 38 37 36 38 37 33 29 24 22 20 20 23 22 25 24 27 29 32 nan nan nan nan nan nan nan nan nan nan nan nan nan nan nan nan nan nan nan nan nan nan nan nan
42 39 36 37 36 35 31 27 23 22 19 22 22 22 26 27 28 32 nan nan nan nan nan nan nan nan nan nan nan nan nan nan nan nan nan nan nan nan nan nan nan nan nan
41 37 34 33 35 32 29 26 24 21 20 19 21 23 27 31 34 nan nan nan nan nan nan nan nan nan nan nan nan nan nan nan nan nan nan nan nan nan nan nan nan nan nan
36 36 36 34 35 33 32 29 26 24 20 18 21 25 28 34 nan nan nan nan nan nan nan nan nan nan nan nan nan nan nan nan nan nan nan nan nan nan nan nan nan nan nan
34 35 35 36 35 33 32 27 26 23 22 22 25 28 32 nan nan nan nan nan nan nan nan nan nan nan nan nan nan nan nan nan nan nan nan nan nan nan nan nan nan nan nan
39 37 35 36 37 34 31 27 25 26 27 29 30 33 nan nan nan nan nan nan nan nan nan nan nan nan nan nan nan nan nan nan nan nan nan nan nan nan nan nan nan nan nan
42 40 39 39 36 34 31 29 29 31 32 34 33 34 nan nan nan nan nan nan nan nan nan nan nan nan nan nan nan nan nan nan nan nan nan nan nan nan nan nan nan nan nan
Wind_Direction
nan 356 351 344 341 341 341 340 338 335 334 335 335 334 333 330 327 327 323 327 322 320 317 310 303 299 297 295 292 291 287 277 277 280 286 292 287 281 277 267 257 265 284
338 347 345 341 341 338 339 340 338 336 335 333 332 332 332 331 330 330 329 327 323 317 313 310 304 293 291 290 287 284 284 283 277 273 276 290 295 299 289 281 270 266 286
332 337 341 340 337 338 340 338 339 337 335 332 331 331 332 330 329 330 331 327 322 316 316 313 307 298 287 285 284 283 281 284 286 268 272 279 279 295 295 291 284 280 276
323 327 334 338 336 336 337 337 338 337 334 333 332 333 331 327 326 327 329 328 324 317 316 313 306 303 296 286 282 280 275 273 261 257 286 290 283 292 295 296 293 283 282
315 323 332 335 335 333 335 336 337 336 336 333 334 332 329 326 324 326 328 328 326 321 320 314 314 304 294 289 282 274 274 269 264 245 300 310 303 289 294 286 290 285 273
312 321 327 331 330 331 334 334 333 338 335 334 332 331 329 327 329 328 330 332 330 328 326 319 318 313 300 286 283 280 267 262 279 292 286 322 319 331 308 296 285 284 277
313 317 323 326 327 329 331 331 330 337 338 335 330 329 328 333 333 330 329 332 340 331 322 323 322 320 315 304 297 264 265 258 257 266 262 297 307 320 322 294 292 284 277
315 317 321 325 326 326 325 326 328 332 338 334 330 333 333 335 337 336 336 341 340 332 328 328 334 321 313 312 314 291 275 254 253 246 254 273 302 320 328 313 318 281 278
312 315 319 326 326 323 321 325 328 330 333 332 329 333 338 338 342 345 348 348 351 356 18 22 10 9 340 321 329 296 293 252 257 256 252 266 273 305 311 318 316 294 282
310 313 318 322 324 320 322 326 326 328 328 327 326 333 335 342 349 352 353 352 3 359 359 3 11 16 26 2 349 289 276 266 239 253 262 268 286 311 321 315 312 306 278
309 313 315 317 320 318 319 322 322 322 321 319 324 333 333 343 352 0 355 353 356 353 355 351 346 354 353 351 0 333 265 277 247 246 253 246 284 315 302 307 302 304 283
318 315 312 311 314 315 317 315 316 314 309 312 320 333 335 348 356 356 351 340 341 348 348 351 356 350 nan nan nan 352 297 250 248 236 245 236 288 322 317 324 324 319 286
319 312 314 314 313 312 309 313 308 302 302 310 323 331 336 349 353 349 342 335 335 342 1 3 355 351 348 349 nan 347 351 236 256 264 237 214 225 300 318 318 348 330 302
314 312 309 311 312 306 299 304 304 302 304 309 324 332 342 350 349 339 332 326 328 337 334 336 341 344 343 330 nan nan nan nan 353 357 341 227 265 309 302 300 326 323 292
315 321 317 313 313 305 303 300 300 303 308 311 321 338 342 345 340 328 323 319 318 322 324 329 334 340 335 332 nan nan nan nan nan 334 329 245 249 274 276 277 281 292 290
321 323 319 313 312 312 307 306 307 307 308 311 324 336 334 333 327 322 319 318 314 320 325 328 nan 334 335 332 329 323 nan nan nan 297 310 280 246 253 271 275 275 278 281
322 321 319 313 309 311 305 305 306 304 303 313 317 319 328 325 323 318 316 317 319 322 nan nan nan nan 324 326 326 nan nan nan nan nan 282 276 269 252 249 260 276 283 nan
309 318 311 306 304 303 303 299 296 296 295 300 308 313 319 318 317 319 317 318 320 nan nan nan nan nan nan nan nan nan nan nan nan nan nan nan 267 254 248 256 269 nan nan
305 310 306 297 296 293 290 287 287 285 289 292 292 299 306 308 313 316 315 315 nan nan nan nan nan nan nan nan nan nan nan nan nan nan nan nan nan nan 266 nan nan nan nan
307 303 295 287 288 288 289 286 280 280 281 283 281 291 299 307 314 315 311 nan nan nan nan nan nan nan nan nan nan nan nan nan nan nan nan nan nan nan nan nan nan nan nan
298 295 296 292 290 292 289 284 276 280 277 280 286 297 304 309 310 310 nan nan nan nan nan nan nan nan nan nan nan nan nan nan nan nan nan nan nan nan nan nan nan nan nan
302 292 288 287 292 289 283 274 276 277 273 280 292 298 304 304 305 nan nan nan nan nan nan nan nan nan nan nan nan nan nan nan nan nan nan nan nan nan nan nan nan nan nan
303 297 293 294 295 285 280 278 272 270 275 285 294 297 300 300 nan nan nan nan nan nan nan nan nan nan nan nan nan nan nan nan nan nan nan nan nan nan nan nan nan nan nan
295 287 292 294 289 284 285 279 290 280 286 290 292 292 296 nan nan nan nan nan nan nan nan nan nan nan nan nan nan nan nan nan nan nan nan nan nan nan nan nan nan nan nan
287 288 286 286 282 282 282 279 276 276 278 285 286 294 nan nan nan nan nan nan nan nan nan nan nan nan nan nan nan nan nan nan nan nan nan nan nan nan nan nan nan nan nan
278 280 284 285 281 282 282 283 281 286 290 291 291 294 nan nan nan nan nan nan nan nan nan nan nan nan nan nan nan nan nan nan nan nan nan nan nan nan nan nan nan nan nan